Weather History for Ogallala, NE

Change the Weather History Date:

Tuesday, February 5, 2013

  Actual Average Record
Temperature  
Mean Temperature 40 °F -  
Max Temperature 55 °F 35 °F 66 °F (1962)
Min Temperature 25 °F 12 °F -23 °F (1982)
Degree Days  
Heating Degree Days 25    
Moisture  
Dew Point 24 °F    
Average Humidity 52    
Maximum Humidity 83    
Minimum Humidity 29    
Precipitation  
Precipitation 0.00 in - - ()
Sea Level Pressure  
Sea Level Pressure 29.94 in    
Wind  
Wind Speed 8 mph (WSW)    
Max Wind Speed 18 mph    
Max Gust Speed 21 mph    
Visibility 10 miles    
Events      
Averages and records for this station are not official NWS values.
T = Trace of Precipitation, MM = Missing Value Source: NWS Daily Summary

Daily Weather History Graph

Daily Weather History Graph

Search for Another Location

Airport:

Trip Planner

Search our weather history database for the weather conditions in past years. The results will help you decide how hot, cold, wet, or windy it might be!

Date:

Astronomy

Feb. 05, 2013 Rise Set
Actual Time 6:53 AM MST 5:09 PM MST
Civil Twilight 6:24 AM MST 5:38 PM MST
Nautical Twilight 5:51 AM MST 6:10 PM MST
Astronomical Twilight 5:19 AM MST 6:43 PM MST
Moon 2:38 AM MST (2/5) 12:27 PM MST (2/5)
Length of Visible Light 11h 13m
Length of Day
10h 15m
Waning Crescent, 26% of the Moon is Illuminated
Feb 5
Waning Crescent
Feb 10
New
Feb 17
First Quarter
Feb 25
Full
Mar 4
Last Quarter

Hourly Weather History & Observations

Time (MST) Temp. Windchill Dew Point Humidity Pressure Visibility Wind Dir Wind Speed Gust Speed Precip Events Conditions
12:15 AM 28.2 °F 21.0 °F 21.7 °F 77% 29.87 in 10.0 mi WSW 6.9 mph - N/A   Clear
12:35 AM 29.1 °F 24.1 °F 21.7 °F 74% 29.86 in 10.0 mi WSW 4.6 mph - N/A   Clear
12:55 AM 27.5 °F 22.2 °F 21.4 °F 78% 29.87 in 10.0 mi West 4.6 mph - N/A   Clear
1:15 AM 27.9 °F 21.5 °F 21.2 °F 76% 29.88 in 10.0 mi West 5.8 mph - N/A   Clear
1:35 AM 27.7 °F 20.4 °F 21.4 °F 77% 29.89 in 10.0 mi West 6.9 mph - N/A   Clear
1:55 AM 27.7 °F 21.3 °F 21.4 °F 77% 29.90 in 10.0 mi WSW 5.8 mph - N/A   Clear
2:15 AM 27.5 °F 21.1 °F 21.7 °F 79% 29.90 in 10.0 mi WSW 5.8 mph - N/A   Clear
2:35 AM 25.7 °F 19.0 °F 20.8 °F 82% 29.89 in 10.0 mi WSW 5.8 mph - N/A   Clear
2:55 AM 25.9 °F 16.6 °F 21.4 °F 83% 29.90 in 10.0 mi WSW 9.2 mph - N/A   Clear
3:15 AM 27.9 °F 20.6 °F 21.9 °F 78% 29.90 in 10.0 mi West 6.9 mph - N/A   Clear
3:35 AM 27.3 °F 19.9 °F 21.7 °F 80% 29.90 in 10.0 mi West 6.9 mph - N/A   Clear
3:55 AM 30.7 °F 22.0 °F 23.5 °F 75% 29.91 in 10.0 mi NW 10.4 mph - N/A   Clear
4:15 AM 32.7 °F 23.9 °F 23.4 °F 68% 29.91 in 10.0 mi NW 11.5 mph - N/A   Clear
4:35 AM 32.9 °F 24.1 °F 23.5 °F 68% 29.92 in 10.0 mi NW 11.5 mph - N/A   Clear
4:55 AM 33.4 °F 24.3 °F 23.5 °F 67% 29.92 in 10.0 mi NW 12.7 mph - N/A   Clear
5:15 AM 33.1 °F 23.9 °F 23.5 °F 68% 29.93 in 10.0 mi NW 12.7 mph - N/A   Clear
5:35 AM 33.1 °F 22.2 °F 23.5 °F 68% 29.94 in 10.0 mi NW 17.3 mph - N/A   Clear
5:55 AM 34.2 °F 23.6 °F 23.5 °F 65% 29.95 in 10.0 mi NNW 17.3 mph - N/A   Clear
6:15 AM 33.8 °F 23.5 °F 23.2 °F 65% 29.96 in 10.0 mi NW 16.1 mph - N/A   Clear
6:35 AM 33.3 °F 22.5 °F 23.2 °F 67% 29.97 in 10.0 mi NNW 17.3 mph - N/A   Clear
6:55 AM 32.4 °F 21.3 °F 23.0 °F 68% 29.98 in 10.0 mi NW 17.3 mph - N/A   Clear
7:15 AM 32.5 °F 22.3 °F 23.4 °F 69% 29.99 in 10.0 mi NNW 15.0 mph - N/A   Clear
7:35 AM 34.2 °F 24.4 °F 23.7 °F 66% 30.00 in 10.0 mi NW 15.0 mph - N/A   Clear
7:55 AM 36.1 °F 28.2 °F 24.6 °F 63% 30.01 in 10.0 mi NW 11.5 mph - N/A   Clear
8:15 AM 38.7 °F 30.1 °F 25.2 °F 58% 30.02 in 10.0 mi NW 15.0 mph - N/A   Clear
8:35 AM 41.0 °F 33.1 °F 24.8 °F 53% 30.02 in 10.0 mi NNW 15.0 mph - N/A   Clear
8:55 AM 43.0 °F 34.8 °F 25.2 °F 49% 30.02 in 10.0 mi NW 18.4 mph - N/A   Clear
9:15 AM 44.1 °F 36.5 °F 24.8 °F 47% 30.02 in 10.0 mi NW 17.3 mph - N/A   Clear
9:35 AM 45.7 °F 40.2 °F 25.2 °F 45% 30.03 in 10.0 mi NW 11.5 mph - N/A   Clear
9:55 AM 46.8 °F - 25.0 °F 43% 30.04 in 10.0 mi NW 8.1 mph - N/A   Clear
10:15 AM 48.2 °F - 25.0 °F 40% 30.04 in 10.0 mi NW 6.9 mph - N/A   Clear
10:35 AM 49.8 °F - 25.3 °F 39% 30.04 in 10.0 mi West 3.5 mph - N/A   Clear
10:55 AM 50.4 °F - 24.8 °F 37% 30.05 in 10.0 mi West 6.9 mph - N/A   Clear
11:15 AM 50.7 °F - 25.7 °F 38% 30.04 in 10.0 mi West 9.2 mph - N/A   Clear
11:35 AM 51.1 °F - 25.2 °F 36% 30.04 in 10.0 mi NW 9.2 mph - N/A   Clear
11:55 AM 51.3 °F - 24.8 °F 36% 30.02 in 10.0 mi NW 6.9 mph - N/A   Clear
12:15 PM 51.3 °F - 24.8 °F 36% 30.00 in 10.0 mi NW 8.1 mph - N/A   Clear
12:35 PM 52.7 °F - 24.3 °F 33% 29.99 in 10.0 mi NW 4.6 mph - N/A   Clear
12:55 PM 52.3 °F - 23.4 °F 32% 29.98 in 10.0 mi Calm Calm - N/A   Clear
1:15 PM 52.3 °F - 23.5 °F 33% 29.97 in 10.0 mi Calm Calm - N/A   Clear
1:35 PM 53.8 °F - 23.2 °F 30% 29.96 in 10.0 mi Calm Calm - N/A   Clear
1:55 PM 53.8 °F - 22.6 °F 30% 29.95 in 10.0 mi SW 3.5 mph - N/A   Clear
2:15 PM 54.5 °F - 23.0 °F 29% 29.95 in 10.0 mi SW 5.8 mph - N/A   Clear
2:35 PM 54.7 °F - 23.2 °F 29% 29.94 in 10.0 mi SSW 4.6 mph - N/A   Clear
2:55 PM 55.4 °F - 23.9 °F 30% 29.93 in 10.0 mi SSW 4.6 mph - N/A   Clear
3:15 PM 55.8 °F - 23.7 °F 29% 29.93 in 10.0 mi South 6.9 mph - N/A   Clear
3:35 PM 54.0 °F - 23.2 °F 30% 29.92 in 10.0 mi Calm Calm - N/A   Clear
3:55 PM 55.4 °F - 23.7 °F 29% 29.91 in 10.0 mi South 5.8 mph - N/A   Clear
4:15 PM 54.0 °F - 23.9 °F 31% 29.92 in 10.0 mi South 5.8 mph - N/A   Clear
4:35 PM 52.5 °F - 23.5 °F 32% 29.93 in 10.0 mi South 5.8 mph - N/A   Clear
4:55 PM 49.8 °F - 23.5 °F 36% 29.92 in 10.0 mi South 5.8 mph - N/A   Mostly Cloudy
5:15 PM 48.6 °F - 23.9 °F 38% 29.92 in 10.0 mi South 5.8 mph - N/A   Overcast
5:35 PM 47.3 °F - 23.9 °F 40% 29.91 in 10.0 mi South 5.8 mph - N/A   Overcast
5:55 PM 46.8 °F - 24.3 °F 41% 29.92 in 10.0 mi South 6.9 mph - N/A   Mostly Cloudy
6:15 PM 46.2 °F 42.2 °F 24.3 °F 42% 29.92 in 10.0 mi SSE 8.1 mph - N/A   Scattered Clouds
6:35 PM 45.1 °F 41.4 °F 23.9 °F 43% 29.92 in 10.0 mi SSE 6.9 mph - N/A   Scattered Clouds
6:55 PM 45.1 °F 41.4 °F 24.1 °F 44% 29.92 in 10.0 mi SSE 6.9 mph - N/A   Mostly Cloudy
7:15 PM 43.7 °F 39.7 °F 24.3 °F 46% 29.91 in 10.0 mi SSE 6.9 mph - N/A   Scattered Clouds
7:35 PM 42.6 °F 39.0 °F 24.3 °F 48% 29.91 in 10.0 mi SSE 5.8 mph - N/A   Scattered Clouds
8:15 PM 41.4 °F 35.7 °F 23.9 °F 50% 29.91 in 10.0 mi SSE 9.2 mph - N/A   Scattered Clouds
8:35 PM 41.0 °F 35.8 °F 23.9 °F 51% 29.91 in 10.0 mi SSE 8.1 mph - N/A   Clear
8:55 PM 41.0 °F 36.4 °F 24.3 °F 51% 29.91 in 10.0 mi SSE 6.9 mph - N/A   Clear
9:15 PM 41.0 °F 38.0 °F 24.3 °F 51% 29.90 in 10.0 mi SSE 4.6 mph - N/A   Clear
9:35 PM 40.6 °F 36.7 °F 24.4 °F 53% 29.90 in 10.0 mi South 5.8 mph - N/A   Clear
9:55 PM 41.0 °F 35.8 °F 24.6 °F 52% 29.90 in 10.0 mi South 8.1 mph - N/A   Clear
10:15 PM 40.5 °F 34.1 °F 24.6 °F 53% 29.89 in 10.0 mi South 10.4 mph - N/A   Clear
10:35 PM 40.3 °F 33.4 °F 24.6 °F 54% 29.88 in 10.0 mi South 11.5 mph 16.1 mph N/A   Clear
10:55 PM 40.5 °F 33.2 °F 24.4 °F 53% 29.86 in 10.0 mi South 12.7 mph 18.4 mph N/A   Clear
11:15 PM 40.5 °F 32.5 °F 23.7 °F 51% 29.86 in 10.0 mi South 15.0 mph 19.6 mph N/A   Mostly Cloudy
11:35 PM 40.3 °F 31.9 °F 23.4 °F 51% 29.86 in 10.0 mi South 16.1 mph 20.7 mph N/A   Scattered Clouds